NOAA 15 1 25338U 98030A 23341.13927079 .00000210 00000-0 10537-3 0 9994 2 25338 98.5900 7.1141 0010652 163.3667 196.7864 14.26449308329910 NAVSTAR 50 (USA 156) 1 26690U 01004A 23340.84285458 -.00000062 00000-0 00000-0 0 9993 2 26690 54.4359 66.6381 0001506 332.6438 29.0804 1.91588696165857 METEOSAT 8 (MSG 1) 1 27509U 02040B 23340.91561628 -.00000094 00000-0 00000-0 0 9993 2 27509 9.4316 47.8446 0015881 53.1636 328.3962 0.97904671 77907 NAVSTAR 51 (USA 166) 1 27663U 03005A 23340.76906444 -.00000024 00000-0 00000-0 0 9991 2 27663 55.1957 251.6950 0135965 45.5250 339.2503 2.00560723152790 NAVSTAR 54 (USA 177) 1 28190U 04009A 23340.26127453 -.00000059 00000-0 00000-0 0 9990 2 28190 55.6183 312.7719 0092111 141.8794 33.1676 2.00564498144416 NAVSTAR 55 (USA 178) 1 28361U 04023A 23340.36033580 .00000068 00000-0 00000-0 0 9993 2 28361 54.3404 124.1251 0147235 274.7123 145.2284 2.00562235142510 NAVSTAR 56 (USA 180) 1 28474U 04045A 23340.94344928 -.00000075 00000-0 00000-0 0 9996 2 28474 55.4430 1.9441 0164533 285.6731 73.8456 2.00536814139916 NOAA 18 1 28654U 05018A 23341.19771333 .00000258 00000-0 16203-3 0 9996 2 28654 98.8954 54.6286 0013418 248.3180 111.6564 14.13073053956005 NAVSTAR 57 (USA 183) 1 28874U 05038A 23340.10804816 -.00000058 00000-0 00000-0 0 9999 2 28874 55.6678 310.2328 0140170 281.5525 166.5421 2.00569205133302 METEOSAT 9 (MSG 2) 1 28912U 05049B 23340.77681330 .00000146 00000-0 00000-0 0 9998 2 28912 7.2420 62.4428 0001963 195.3391 143.0926 1.00280125 65785 GOES 13 1 29155U 06018A 23340.89873388 -.00000153 00000-0 00000-0 0 9993 2 29155 2.1196 87.5284 0086805 246.8134 3.6314 0.99155669 34118 METOP-A 1 29499U 06044A 23340.93572917 .00002039 00000-0 26657-3 0 9995 2 29499 98.3806 46.0966 0192643 118.7762 226.2534 14.69475933889535 NAVSTAR 59 (USA 192) 1 29601U 06052A 23341.04822050 -.00000020 00000-0 00000+0 0 9997 2 29601 55.2194 250.6493 0085661 79.7542 281.2529 2.00554795124930 NAVSTAR 60 (USA 196) 1 32260U 07047A 23340.36160253 .00000054 00000-0 00000-0 0 9998 2 32260 53.5107 118.2845 0152522 72.9605 288.6891 2.00574279118289 NAVSTAR 61 (USA 199) 1 32384U 07062A 23340.42600844 -.00000058 00000-0 00000-0 0 9999 2 32384 55.8019 311.0551 0023890 151.4473 25.1301 2.00563519116981 NOAA 19 1 33591U 09005A 23341.19360749 .00000210 00000-0 13733-3 0 9990 2 33591 99.0775 29.6993 0014736 115.0484 245.2219 14.12881661764372 GOES 14 1 35491U 09033A 23340.88916139 -.00000041 00000-0 00000-0 0 9990 2 35491 0.1830 258.7930 0001168 290.3806 97.7315 1.00272060 52854 GOES 15 1 36411U 10008A 23341.13778534 .00000064 00000-0 00000+0 0 9994 2 36411 0.1830 272.3582 0006228 339.9475 294.1749 1.00272281 50370 ELEKTRO-L 1 37344U 11001A 23340.78481939 -.00000157 00000-0 00000-0 0 9999 2 37344 7.5646 63.2671 0005174 17.1457 4.1482 1.00151620 47239 COSMOS 2471 (GLONASS) 1 37372U 11009A 23340.49395566 -.00000037 00000-0 00000-0 0 9993 2 37372 65.8462 345.5089 0009284 326.6295 152.1964 2.12910317 99412 NAVSTAR 66 (USA 232) 1 37753U 11036A 23340.56275701 -.00000077 00000-0 00000-0 0 9996 2 37753 56.7547 7.8525 0127733 56.6958 9.2713 2.00523475 90751 GALILEO-PFM 1 37846U 11060A 23340.56371771 -.00000073 00000-0 00000+0 0 9995 2 37846 57.1183 6.7736 0002014 317.0598 42.9796 1.70476025 75500 GALILEO-FM2 1 37847U 11060B 23340.48799479 -.00000074 00000-0 00000+0 0 9997 2 37847 57.1191 6.7757 0004027 303.1475 56.4929 1.70475450 75508 LUCH 5A 1 37951U 11074B 23340.63382809 -.00000025 00000-0 00000-0 0 9997 2 37951 6.3844 88.1262 0003330 157.1725 225.0106 1.00269491 43797 METEOSAT 10 (MSG 3) 1 38552U 12035B 23341.12577619 .00000018 00000-0 00000+0 0 9993 2 38552 2.5385 58.9243 0000859 200.4746 221.7558 1.00267137 41961 METOP-B 1 38771U 12049A 23341.18099723 .00000151 00000-0 88622-4 0 9991 2 38771 98.6569 37.4660 0000947 109.5861 314.8846 14.21521596582125 NAVSTAR 67 (USA 239) 1 38833U 12053A 23340.94763682 .00000102 00000-0 00000+0 0 9995 2 38833 53.5115 181.3660 0147573 53.8855 307.5420 2.00568815 81817 GALILEO-FM3 1 38857U 12055A 23339.42959718 .00000065 00000-0 00000-0 0 9990 2 38857 55.3235 126.9603 0002517 238.0260 121.9313 1.70473667 69241 GALILEO-FM4 1 38858U 12055B 23340.57209624 .00000068 00000-0 00000-0 0 9996 2 38858 55.3239 126.9306 0001512 162.5919 197.3957 1.70473862 69262 NAVSTAR 68 (USA 242) 1 39166U 13023A 23340.81232360 -.00000059 00000-0 00000-0 0 9996 2 39166 55.2811 306.3639 0117966 41.6632 319.2266 2.00564202 77364 INSAT 3D 1 39216U 13038B 23340.85557058 -.00000133 00000-0 00000-0 0 9999 2 39216 0.0279 285.2482 0002772 333.4414 206.7800 1.00272233 37825 NAVSTAR 69 (USA 248) 1 39533U 14008A 23339.81750704 .00000080 00000-0 00000-0 0 9996 2 39533 53.5966 186.9832 0067318 215.2187 144.4055 2.00557054 71141 LUCH 5V 1 39727U 14023A 23340.85809424 -.00000246 00000-0 00000-0 0 9993 2 39727 2.8133 76.9628 0003960 197.0004 205.0419 1.00274924 35103 NAVSTAR 70 (USA 251) 1 39741U 14026A 23339.60215434 -.00000082 00000-0 00000-0 0 9993 2 39741 56.7054 7.4111 0032478 310.0558 49.7118 2.00550836 69995 NAVSTAR 71 (USA 256) 1 40105U 14045A 23340.68224141 .00000071 00000-0 00000-0 0 9992 2 40105 54.8514 125.3419 0027512 116.1166 244.1569 2.00552967 67553 GALILEO 5 (261) 1 40128U 14050A 23341.12795373 -.00000084 00000-0 00000+0 0 9997 2 40128 49.8499 310.8130 1606075 143.9071 228.1104 1.85519673 63132 GALILEO 6 (262) 1 40129U 14050B 23340.30901823 -.00000084 00000-0 00000-0 0 9997 2 40129 49.8692 309.9192 1604238 144.6855 227.1052 1.85520316 63342 NAVSTAR 72 (USA 258) 1 40294U 14068A 23340.55174395 -.00000058 00000-0 00000-0 0 9993 2 40294 56.2562 66.8093 0048545 62.4699 298.0417 2.00577975 66680 COSMOS 2501 (GLONASS) 1 40315U 14075A 23340.32922665 .00000027 00000-0 00000-0 0 9996 2 40315 63.6298 222.4221 0018265 205.6678 154.3180 2.13101348 70169 NAVSTAR 73 (USA 260) 1 40534U 15013A 23340.19877579 -.00000016 00000-0 00000-0 0 9999 2 40534 53.4201 242.4428 0085332 27.6035 332.9013 2.00548912 63295 GALILEO 7 (263) 1 40544U 15017A 23340.92954525 -.00000072 00000-0 00000+0 0 9993 2 40544 56.9139 6.7239 0005462 258.9782 101.0158 1.70476194 54124 GALILEO 8 (264) 1 40545U 15017B 23340.59686880 -.00000074 00000-0 00000+0 0 9995 2 40545 56.9199 6.7475 0005207 248.1960 111.8035 1.70475771 54122 NAVSTAR 74 (USA 262) 1 40730U 15033A 23340.85923795 -.00000059 00000-0 00000-0 0 9991 2 40730 54.7677 304.9309 0089863 14.8808 345.3780 2.00550111 61476 GALILEO 9 (205) 1 40889U 15045A 23339.19203561 -.00000011 00000-0 00000+0 0 9993 2 40889 55.3142 247.1608 0005272 8.2226 351.8357 1.70472902 51241 GALILEO 10 (206) 1 40890U 15045B 23338.23958566 -.00000013 00000-0 00000-0 0 9994 2 40890 55.3127 247.1828 0003831 19.1662 340.8991 1.70472942 51251 NAVSTAR 75 (USA 265) 1 41019U 15062A 23340.40925440 -.00000058 00000-0 00000-0 0 9993 2 41019 56.2389 66.6665 0093238 222.7241 136.5683 2.00562326 59305 GALILEO 12 (269) 1 41174U 15079A 23339.58354663 .00000065 00000-0 00000-0 0 9990 2 41174 55.3413 126.6638 0001686 334.9049 25.0686 1.70474636 49014 GALILEO 11 (268) 1 41175U 15079B 23337.45687098 .00000055 00000-0 00000-0 0 9995 2 41175 55.3377 126.7202 0001022 350.7011 9.2729 1.70474485 49396 NAVSTAR 76 (USA 266) 1 41328U 16007A 23340.49537831 .00000073 00000-0 00000-0 0 9994 2 41328 55.0528 126.1486 0073957 234.0152 125.2885 2.00571335 57314 GALILEO 14 (26B) 1 41549U 16030A 23339.92502829 -.00000008 00000-0 00000-0 0 9999 2 41549 55.4595 247.1262 0004033 346.2540 13.7842 1.70473101 46915 GALILEO 13 (26A) 1 41550U 16030B 23340.21640856 -.00000007 00000-0 00000-0 0 9997 2 41550 55.4587 247.1195 0002699 321.2331 38.7967 1.70473392 46917 GALILEO 15 (267) 1 41859U 16069A 23338.11757735 .00000058 00000-0 00000-0 0 9997 2 41859 55.0057 126.7537 0001706 295.1792 64.7813 1.70474574 43613 GALILEO 16 (26C) 1 41860U 16069B 23338.55870408 .00000060 00000-0 00000-0 0 9993 2 41860 55.0016 126.7382 0001276 28.7195 331.2671 1.70474810 43872 GALILEO 17 (26D) 1 41861U 16069C 23339.51208353 .00000064 00000-0 00000+0 0 9998 2 41861 55.0049 126.7180 0002169 251.1302 108.8279 1.70473406 43882 GALILEO 18 (26E) 1 41862U 16069D 23339.07255109 .00000062 00000-0 00000-0 0 9990 2 41862 55.0031 126.7241 0001298 238.4939 121.4743 1.70474876 43876